Regional Weather Roundup
Issued by NWS

Home | Current Version | Previous Version | Text Only | Print | Product List | Glossary Off
Versions: 1 2 3 4 5 6 7 8 9 10 11 12 13 14 15 16 17 18 19 20 21 22 23 24 25 26 27 28 29 30 31 32 33 34 35 36 37 38 39 40 41 42 43 44 45 46 47 48 49 50

000
ASUS43 KMKX 050220
RWRWI

WISCONSIN REGIONAL WEATHER ROUNDUP
NATIONAL WEATHER SERVICE MILWAUKEE/SULLIVAN WI
800 PM CST WED MAR 04 2015

NOTE: "FAIR" INDICATES FEW OR NO CLOUDS BELOW 12,000 FEET WITH NO
SIGNIFICANT WEATHER AND/OR OBSTRUCTIONS TO VISIBILITY.

WIZ001-002-006>008-014>016-023>028-050300-
NORTHWEST WISCONSIN

CITY           SKY/WX    TMP DP  RH WIND       PRES   REMARKS
SUPERIOR ARPT  CLEAR      0 -14  52 W6        30.33R WCI -12
ASHLAND        CLEAR     -6 -15  65 SW7       30.29R WCI -20
HAYWARD        CLEAR     -6 -17  59 CALM      30.25R
SIREN          PTCLDY    -2 -14  56 CALM      30.31R
CUMBERLAND     FAIR       0 -15  50 NW7       30.26R WCI -13
RICE LAKE      FAIR       0 -14  52 NW3       30.29S
CHETEK         FAIR       0 -13  54 W3        30.28R
LADYSMITH      CLEAR      1 -12  55 NW6       30.27R WCI -11
EAU CLAIRE     CLEAR      2 -13  49 W7        30.29R WCI -11
MENOMONIE      CLEAR      4 -11  48 W9        30.31R WCI -10
NEW RICHMOND   CLEAR      1 -12  54 NW9       30.31S WCI -14
OSCEOLA        PTCLDY     1 -11  55 W7        30.36R WCI -11
$$

WIZ003>005-009-010-017-018-050300-
NORTH CENTRAL WISCONSIN

CITY           SKY/WX    TMP DP  RH WIND       PRES   REMARKS
MANITOWISH WTR CLEAR     -5 -15  60 W5        30.17R WCI -16
ARBOR VITAE    CLEAR     -1 -11  62 NW5       30.17R WCI -11
WOODRUFF       CLEAR     -1 -11  62 NW5       30.17R WCI -11
RHINELANDER    CLEAR     -1 -10  65 VRB5      30.17R WCI -11
EAGLE RIVER    CLEAR     -3 -10  69 NW6       30.15R WCI -15
LAND O LAKES   CLEAR     -4 -13  63 W6        30.15R WCI -16
PHILLIPS       PTCLDY    -3 -12  63 CALM      30.21R
TOMAHAWK       CLEAR     -4 -13  64 CALM      30.20R
MEDFORD        CLEAR     -1 -13  55 NW5       30.20R WCI -11
MERRILL        CLEAR      2 -12  51 CALM      30.22R
$$

WIZ029-030-035-036-043>047-050300-
CENTRAL WISCONSIN

CITY           SKY/WX    TMP DP  RH WIND       PRES   REMARKS
WAUSAU         CLEAR      3 -12  49 NW7       30.22R WCI  -9
MOSINEE        CLEAR      1 -11  55 W6        30.23R WCI -10
MARSHFIELD     CLEAR      3 -11  52 W8        30.24R WCI -10
STEVENS POINT  CLEAR      4 -12  46 W6        30.25R WCI  -7
WAUPACA        PTCLDY    10 -12  37 NW9       30.27R WCI  -4
WAUTOMA        CLEAR      7  -9  48 NW7       30.27R WCI  -4
WISC RAPIDS    CLEAR      4 -12  48 NW6       30.27R WCI  -7
CAMP DOUGLAS   PTCLDY     3  -6  66 W7        30.27R WCI  -9
$$

WIZ011>013-019>022-031-037>040-048>050-050300-
NORTHEAST WISCONSIN

CITY           SKY/WX    TMP DP  RH WIND       PRES   REMARKS
ANTIGO         CLEAR     -1 -11  61 NW5       30.19R WCI -11
SHAWANO        CLEAR      8 -11  41 CALM      30.26R
OCONTO         CLEAR      7 -11  44 N5        30.26R WCI  -2
STURGEON BAY   PTCLDY     7 -11  43 NW10      30.26R WCI  -8
GREEN BAY      PTCLDY     6  -8  52 W10       30.25R WCI  -9
MANITOWOC      PTCLDY     8  -8  48 NW12      30.25R WCI  -7
APPLETON       CLEAR      7 -11  43 W10       30.25R WCI  -8
CLINTONVILLE   CLEAR      5  -9  51 W7        30.26R WCI  -7
OSHKOSH        CLEAR      8  -7  50 NW10      30.24R WCI  -6
$$

WIZ032>034-041-042-053>061-050300-
SOUTHWEST WISCONSIN

CITY           SKY/WX    TMP DP  RH WIND       PRES   REMARKS
LA CROSSE      CLEAR      9  -3  58 W10       30.33R WCI  -5
SPARTA         PTCLDY     9  -4  56 W6        30.30R WCI  -1
VIROQUA        CLEAR      6  -4  61 NW13      30.25S WCI -10
BOSCOBEL       PTCLDY    10  -4  53 W5        30.33R WCI   2
PRAIRIE DU CHI PTCLDY     8  -2  61 W7        30.34R WCI  -3
PLATTEVILLE    PTCLDY     7  -2  64 W8        30.30R WCI  -5
$$

WIZ056-057-062-063-064-067-068-050300-
SOUTH CENTRAL WISCONSIN

CITY           SKY/WX    TMP DP  RH WIND       PRES   REMARKS
REEDSBURG      CLEAR      9  -5  53 W6        30.26S WCI  -1
BARABOO/DELLS  CLEAR      9  -7  48 CALM      30.25R
LONE ROCK      CLEAR     11  -5  48 NW9       30.31R WCI  -2
MINERAL POINT  CLEAR     10  -4  52 W8        30.26R WCI  -1
MADISON        PTCLDY    11  -5  48 NW6       30.26R WCI   1
MIDDLETON      PTCLDY    12  -6  43 W9        30.26R WCI   0
WATERTOWN      CLEAR     11  -4  48 W9        30.25R WCI  -1
MONROE         CLEAR      9   0  66 W10       30.26R WCI  -6
JANESVILLE     CLEAR     10  -6  48 W7        30.25R WCI   0
$$

WIZ051-052-058>065-066-070>072-050300-
SOUTHEAST WISCONSIN

CITY           SKY/WX    TMP DP  RH WIND       PRES   REMARKS
MILWAUKEE      PTCLDY    15  -6  39 NW7       30.24R WCI   5
WAUKESHA       PTCLDY     9  -6  52 NW8       30.24R WCI  -4
MILWAUKEE/TIMM CLEAR     12  -9  37 NW7       30.25R WCI   2
RACINE         PTCLDY    13  -6  42 NW5       30.26R WCI   5
BURLINGTON     PTCLDY     7  -8  48 W5        30.26R WCI  -2
KENOSHA        PTCLDY     7  -7  52 W5        30.26R WCI  -2
FOND DU LAC    CLEAR      9  -7  48 NW8       30.25R WCI  -3
SHEBOYGAN      PTCLDY     9  -8  46 NW8       30.24R WCI  -3
WEST BEND      CLEAR     10  -8  44 NW6       30.23R WCI   1
JUNEAU         FAIR      10  -6  50 NW5       30.25R WCI   1
$$

LSZ147-162-050300-
LAKE SUPERIOR

STATION/POSITION TIME  TEMP    WIND        PRES    WAVE
                       AIR SEA DIR/SP/G            HT/PER
                 (UTC) (F)     (DEG/KT/KT) (MB)    (FT/S)
DEVILS ISLAND    0200    6     310/ 16/ 20 1027.2R
PORT WING        0100    6     310/ 14/ 19 1025.7R
SAXON HARBOR     0040    3     240/  3/  6 1025.1R
$$

LMZ867-665-643>646-050300-
LAKE MICHIGAN

STATION/POSITION TIME  TEMP    WIND        PRES    WAVE
                       AIR SEA DIR/SP/G            HT/PER
                 (UTC) (F)     (DEG/KT/KT) (MB)    (FT/S)
NORTHPORT PIER   0210   10     320/ 17/ 25 1024.7R
SISTER BAY       0013    7     330/ 14/ 15   N/A
KEWAUNEE LAKESHO 0100    9     280/  5/ 11 1022.0R
SHEBOYGAN LAKESH 0200   11     320/ 10/ 12 1026.1R
PORT WASHINGTON  0140   13     330/  4/  9 1024.7R
MILWAUKEE LAKESH 0200   15     300/  8/ 10   N/A
KENOSHA   LAKESH 0200   15     280/  5/  7 1025.4R
$$

TC  - TEMPERATURE IN CELSIUS
VSB - VISIBILITY IN STATUTE MILES
WCI - WIND CHILL INDEX
HX  - HEAT INDEX



USA.gov is the U.S. government's official web portal to all federal, state and local government web resources and services.